Weather in Isheevka

Russia / Ulyanovsk Oblast     54°25′48″N   48°15′24″E
temp.,
°C
wind,
m/s
gust,
m/s
humid.,
%
clouds,
%
prec.,
mm/h
press.,
hPa
HPBL,
m
29 july, thu
thu2901:00+16sse22635 0.0 101431
04:00+15s2261100 0.0 101435
07:00+18s3558100 0.0 1013184
10:00+15ssw3780100 0.8 1012210
13:00+16sse2594100 2.3 1011172
16:00+18sse4885100 2.4 1009355
19:00+21ssw4876100 0.4 1006344
22:00+18ssw6119467 3.0 1005292
30 july, fri
fri3001:00+17sw5109585 0.0 1005254
04:00+17w5129434 0.0 1006338
07:00+18wnw511905 0.0 1006473
10:00+22wnw57685 0.0 1007810
13:00+27w46515 0.0 10071404
16:00+28w674884 0.0 10071817
19:00+27wsw345496 0.0 100692
22:00+21wsw4774100 0.3 100697
31 july, sat
sat3101:00+19w3493100 0.4 1007113
04:00+18ssw2292100 1.0 100625
07:00+19wsw3589100 0.0 1006200
10:00+23w5771100 0.0 1006672
13:00+27w6755100 0.0 10061495
16:00+26w5852100 0.0 1007686
19:00+26w59510 0.0 1007505
22:00+21w35652 0.0 100985
1 august, sun
sun101:00+19wsw4106147 0.0 1009165
04:00+18wsw411610 0.0 1010189
07:00+20wsw496314 0.0 1011232
10:00+25w46476 0.0 1012672
13:00+28w6737100 0.0 10111722
16:00+28w673599 0.0 10111803
19:00+26wnw354549 0.0 1011131
22:00+22wsw225552 0.0 101211
2 august, mon
mon201:00+21ssw33585 0.0 101225
04:00+20ssw34640 0.0 101150
07:00+22wsw28623 0.0 1012221
10:00+29wsw57416 0.0 1011572
13:00+31w353681 0.0 10111257
16:00+32ssw3532100 0.0 10101830
19:00+29e2247100 0.1 100920
22:00+25sse46555 0.4 100980